Location: Newark
(54.6833°N, 25.2833°E)
Time: 23:19:06
(UTC+00:00)

Altair - Pass Details

Date: 14 November 2019
Orbit: 1502 x 1682 km, 47.2° (Epoch: 07 December)

Event Time Altitude Azimuth Distance (km) Brightness Sun altitude
Rises 06:09:59 0° 266° (W) 4,644 9.6 2.0°
Reaches altitude 10° 06:13:03 10° 262° (W) 3,672 9.1 2.3°
Maximum altitude 06:21:55 54° 189° (S) 1,823 8.3 3.3°
Drops below altitude 10° 06:31:04 10° 116° (ESE) 3,781 11.5 4.4°
Sets 06:34:16 0° 112° (ESE) 4,790 11.7 4.7°
